Regional Weather Roundup
Issued by NWS

Home | Current Version | Previous Version | Text Only | Print | Product List | Glossary Off
Versions: 1 2 3 4 5 6 7 8 9 10 11 12 13 14 15 16 17 18 19 20 21 22 23 24 25 26 27 28 29 30 31 32 33 34 35 36 37 38 39 40 41 42 43 44 45 46 47 48 49 50

000
ASUS43 KBIS 280302
RWRND

NORTH DAKOTA REGIONAL WEATHER ROUNDUP
NATIONAL WEATHER SERVICE BISMARCK ND
1000 PM CDT SAT MAY 27 2017

NOTE: "FAIR" INDICATES FEW OR NO CLOUDS BELOW 12,000 FEET WITH NO
SIGNIFICANT WEATHER AND/OR OBSTRUCTIONS TO VISIBILITY.


NDZ001>003-009>011-017-280400-
NORTHWEST NORTH DAKOTA

CITY           SKY/WX    TMP DP  RH WIND       PRES   REMARKS
WILLISTON      FAIR      65  44  46 N13       29.87R
MINOT          FAIR      54  45  71 CALM      29.82S
MINOT AFB      CLEAR     53  48  85 CALM      29.81S
$$

NDZ018>021-031>035-040>046-280400-
SOUTHWEST NORTH DAKOTA

CITY           SKY/WX    TMP DP  RH WIND       PRES   REMARKS
BISMARCK       FAIR      58  44  60 SW3       29.86R
DICKINSON      FAIR      54  38  54 W10       29.88S
GARRISON         N/A     52  43  71 W5        29.84R
HETTINGER ARPT CLEAR     55  36  48 NW8       29.94R
$$

NDZ004>008-012>016-024-026-027-054-280400-
NORTHEAST NORTH DAKOTA

CITY           SKY/WX    TMP DP  RH WIND       PRES   REMARKS
GRAND FORKS    LGT RAIN  55  50  83 NW22G30   29.72F
GRND FRKS AFB  LGT RAIN  52  49  88 N13       29.74F
DEVILS LAKE    FAIR      49  46  90 NW7       29.80R
$$

NDZ022-023-025-028>030-036>039-047>053-280400-
SOUTHEAST NORTH DAKOTA

CITY           SKY/WX    TMP DP  RH WIND       PRES   REMARKS
FARGO          CLOUDY    60  45  57 NW21G29   29.77R
JAMESTOWN      FAIR      51  46  83 W7        29.80R
$$





USA.gov is the U.S. government's official web portal to all federal, state and local government web resources and services.